Lexington Weather

Lexington, Massachusetts, USA

76°F
8/7/2020 12:05pm 
  • Lexington Conditions: Mostly cloudy
  • Temperature: 76.3°F / 24.6°CWarmer 4.3°F than last hour.
  • Dew Point: 65.3°FIncreased 2.2°Fsince last hour.
  • Relative Humidity: 69%Decreased 5.0% since last hour.
  • Wind: Calm, 10-min avg: Calm, gust: 2 mph
  • Barometer: 30.12 inFalling 0.03  inHg/hr Falling Slowly
  • Visibility: 10 miles
  • Rain Today: 0.00 in
  •   

Regional Weather Roundup
for Boston / Norton, MA

        
000
ASUS41 KBOX 060304
RWRBOX

REGIONAL WEATHER ROUNDUP
NATIONAL WEATHER SERVICE BOSTON/NORTON MA
1100 PM EDT WED AUG 05 2020

NOTE:  "FAIR" INDICATES FEW OR NO CLOUDS BELOW 12,000 FEET WITH NO 
SIGNIFICANT WEATHER AND/OR OBSTRUCTIONS TO VISIBILITY.

MAZALL-060400-
EASTERN MASSACHUSETTS
  
CITY           SKY/WX    TMP DP  RH WIND       PRES   REMARKS
BOSTON         PTCLDY    77  56  48 NW10      30.03R                  
BEVERLY        PTCLDY    74  56  53 W3        30.02R                  
LAWRENCE       PTCLDY    73  56  54 W5        30.04R                  
BEDFORD        MOCLDY    71  59  65 CALM      30.02R                  
BLUE HILL        N/A     73  59  61 W5        30.05R                  
NORWOOD        PTCLDY    70  61  73 CALM      30.04R                  
MARSHFIELD     PTCLDY    75  68  78 CALM      30.02S                  
PLYMOUTH       PTCLDY    72  66  81 SW6       30.04R                  
TAUNTON        PTCLDY    74  67  78 SW3       30.03R                  
NEW BEDFORD    CLEAR     72  66  81 W6        30.03R                  
$$

MAZALL-060400-
CAPE COD AND THE ISLANDS
  
CITY           SKY/WX    TMP DP  RH WIND       PRES   REMARKS
FALMOUTH       CLEAR     72  68  88 SW9       30.04S                  
HYANNIS        CLEAR     74  68  81 SW9       30.03R                  
CHATHAM        CLEAR     75  69  81 SW6       30.04S                  
PROVINCETOWN   CLEAR     69  67  93 SW9       30.03R                  
NANTUCKET      CLOUDY    72  71  97 SW9       30.05S FOG              
MARTHAS VNYRD  CLEAR     72  70  93 SW7       30.04S                  
$$
 
MAZALL-060400-
CENTRAL AND WESTERN MASSACHUSETTS
  
CITY           SKY/WX    TMP DP  RH WIND       PRES   REMARKS
WORCESTER      CLEAR     69  55  60 NW12      30.07R                  
FITCHBURG      CLEAR     68  57  68 N3        30.05R                  
ORANGE         MOCLDY    64  60  87 NW3       30.07R                  
SPRINGFIELD    PTCLDY    66  60  80 CALM      30.05R                  
WESTFIELD      CLEAR     66  61  84 CALM      30.06R                  
NORTH ADAMS    NOT AVBL                                               
PITTSFIELD     CLEAR     59  56  89 CALM      30.08S                  
$$
 
RIZALL-060400-
RHODE ISLAND
  
CITY           SKY/WX    TMP DP  RH WIND       PRES   REMARKS
PROVIDENCE     PTCLDY    75  65  70 W7        30.04R                  
NEWPORT        CLEAR     72  67  84 SW3       30.04R                  
BLOCK ISLAND   PTCLDY    71  68  90 SW14      30.05S                  
SMITHFIELD     CLEAR     70  62  76 NW3       30.06R                  
WESTERLY       CLEAR     72  66  81 CALM      30.05R                  
$$
 
CTZALL-060400-
CONNECTICUT
  
CITY           SKY/WX    TMP DP  RH WIND       PRES   REMARKS
BRADLEY INTL   PTCLDY    68  58  70 CALM      30.05R                  
HARTFORD       PTCLDY   N/A N/A N/A CALM        N/A                   
BRIDGEPORT     NOT AVBL                                               
DANBURY        CLEAR     65  61  87 SW3       30.08R                  
GROTON         CLEAR     73  68  84 SW8       30.03S                  
NEW HAVEN      PTCLDY    71  63  75 CALM      30.05R                  
CHESTER        NOT AVBL                                               
MERIDEN        CLEAR     66  61  84 CALM      30.05R                  
WILLIMANTIC    CLEAR     69  65  86 N5        30.05R                  
OXFORD         CLEAR     66  62  87 CALM      30.08R                  
$$

MEZ002-015-021-024-NHZ003-005-008-011-012-014-VTZ005-008-060400-
NORTHERN NEW ENGLAND
  
CITY           SKY/WX    TMP DP  RH WIND       PRES   REMARKS
PORTLAND ME    CLEAR     73  53  49 W9        29.99R                  
BANGOR ME      PTCLDY    71  65  81 W5        29.95R                  
CONCORD NH     CLEAR     68  52  56 W5        30.04R                  
MANCHESTER NH  PTCLDY    75  52  44 NW5       30.02R                  
NASHUA NH      CLEAR     69  60  73 NW6       30.04R                  
PORTSMOUTH NH  PTCLDY    73  51  46 W5        30.00R                  
JAFFREY NH     CLEAR     60  56  86 CALM      30.08S                  
KEENE NH       CLEAR     59  57  93 S3        30.07R                  
BURLINGTON VT  CLEAR     69  47  45 SW6       30.03S                  
MT. WASHINGTON FOG       43  43 100 W49         N/A  VSB 1/16WCI  30  
$$

NYZ052-076-060400-
EASTERN NEW YORK
  
CITY           SKY/WX    TMP DP  RH WIND       PRES   REMARKS
ALBANY         PTCLDY    63  57  81 CALM      30.06S                  
NEW YORK CITY  PTCLDY    82  59  45 NW8       30.04S                  
$$
 
ANZALL-060400-
MARINE OBSERVATIONS
  
STATION/POSITION TIME  TEMP    WIND        PRES    VSBY  WAVE
                       AIR SEA DIR/SP/G                  HT/PER
                 (UTC) (F)     (DEG/KT/KT) (MB)    (MI)  (FT/S)
BOSTON BUOY      0250   71 61  270/  6/  6 1015.7R         1/11
BUZZARDS BAY     0200          220/ 19/ 21 1017.6R
NANTUCKET SOUND  0240      76  220/ 16/ 17   N/A
MASS BAY-STELLWA 0204   70     330/  8/  8 1013.8R  1 7/8  2/ 8
ISLE OF SHOALS   0200   77     290/ 15/ 16 1015.2R
S OF BLOCK IS    0226      72                N/A           4/ 8
$$

......................KEY.........................
  SKY/WX - SKY CONDITION/PRESENT WEATHER
  TMP    - TEMPERATURE IN FAHRENHEIT
  DWPT   - DEWPOINT IN FAHRENHEIT
  RH     - RELATIVE HUMIDITY IN PERCENT
  WIND   - DIRECTION AND SPEED IN MPH
  PRES   - MEAN SEA LEVEL PRESSURE IN INCHES OF HG
  WCI    - WIND CHILL INDEX
  VSB    - VISIBILITY IN MILES
  HX     - HEAT INDEX
  TC     - TEMPERATURE IN CELSIUS
  VRB    - VARIABLE WIND DIRECTION
  N/A    - NOT AVAILABLE
  
      

Other recent Regional Weather Roundups

Fri Aug 7, 11:04am

Fri Aug 7, 10:04am

Fri Aug 7, 9:04am

Fri Aug 7, 8:04am

Fri Aug 7, 7:04am

Fri Aug 7, 6:04am

Fri Aug 7, 5:04am

Fri Aug 7, 4:04am

Fri Aug 7, 3:04am

Fri Aug 7, 2:04am

Fri Aug 7, 1:05am

Fri Aug 7, 12:04am

Thu Aug 6, 11:04pm

Thu Aug 6, 10:04pm

Thu Aug 6, 9:04pm

Thu Aug 6, 8:04pm

Thu Aug 6, 7:04pm

Thu Aug 6, 6:04pm

Thu Aug 6, 5:04pm

Thu Aug 6, 4:05pm

Thu Aug 6, 3:04pm

Thu Aug 6, 2:05pm

Thu Aug 6, 1:04pm

Thu Aug 6, 12:04pm

Thu Aug 6, 11:04am

Thu Aug 6, 10:04am

Thu Aug 6, 9:04am

Thu Aug 6, 8:04am

Thu Aug 6, 7:04am

Thu Aug 6, 6:04am

Thu Aug 6, 5:04am

Thu Aug 6, 4:04am

Thu Aug 6, 3:04am

Thu Aug 6, 2:05am

Thu Aug 6, 1:04am

Thu Aug 6, 12:04am

Wed Aug 5, 10:04pm

Wed Aug 5, 9:04pm

Wed Aug 5, 8:05pm

Wed Aug 5, 7:04pm

Wed Aug 5, 6:04pm

Wed Aug 5, 5:04pm

Wed Aug 5, 4:05pm

Wed Aug 5, 3:04pm

Wed Aug 5, 2:04pm

Wed Aug 5, 1:04pm

Wed Aug 5, 12:04pm

Wed Aug 5, 11:04am

Wed Aug 5, 10:04am

Wed Aug 5, 9:04am

Wed Aug 5, 8:04am

Wed Aug 5, 7:04am

Wed Aug 5, 6:04am

Wed Aug 5, 5:04am

Wed Aug 5, 4:04am

Wed Aug 5, 3:04am

Wed Aug 5, 2:05am

Wed Aug 5, 1:04am

Wed Aug 5, 12:05am

Tue Aug 4, 11:05pm

Tue Aug 4, 10:05pm

Tue Aug 4, 9:04pm

Tue Aug 4, 8:04pm

Tue Aug 4, 7:05pm

Tue Aug 4, 6:05pm

Tue Aug 4, 5:05pm

Tue Aug 4, 4:05pm

Tue Aug 4, 3:04pm

Tue Aug 4, 2:05pm

Tue Aug 4, 1:04pm

Tue Aug 4, 12:05pm

Tue Aug 4, 11:04am

Tue Aug 4, 10:04am

Tue Aug 4, 9:04am

Tue Aug 4, 8:04am

Tue Aug 4, 7:04am

Tue Aug 4, 6:04am

Tue Aug 4, 5:04am

Tue Aug 4, 4:04am

Tue Aug 4, 3:04am

Tue Aug 4, 2:04am

Tue Aug 4, 1:04am

Tue Aug 4, 12:04am

Mon Aug 3, 11:04pm

Mon Aug 3, 10:04pm

Mon Aug 3, 9:04pm

Mon Aug 3, 8:05pm

Mon Aug 3, 7:04pm

Mon Aug 3, 6:04pm

Mon Aug 3, 5:04pm

Mon Aug 3, 4:05pm

Mon Aug 3, 3:04pm

Mon Aug 3, 2:04pm

Mon Aug 3, 1:04pm

Mon Aug 3, 12:05pm

Mon Aug 3, 11:04am

Mon Aug 3, 10:04am

Mon Aug 3, 9:05am

Mon Aug 3, 8:04am

Mon Aug 3, 7:04am

Mon Aug 3, 6:04am

Mon Aug 3, 5:04am

Mon Aug 3, 4:04am

Mon Aug 3, 3:04am

Mon Aug 3, 2:04am

Mon Aug 3, 1:04am

Mon Aug 3, 12:05am

Sun Aug 2, 11:04pm

Sun Aug 2, 10:04pm

Sun Aug 2, 9:04pm

Sun Aug 2, 8:04pm

Sun Aug 2, 7:04pm

Sun Aug 2, 6:04pm

Sun Aug 2, 5:04pm

Sun Aug 2, 4:05pm

Sun Aug 2, 3:04pm

Sun Aug 2, 2:05pm

Sun Aug 2, 1:04pm

Sun Aug 2, 12:04pm

Sun Aug 2, 11:04am

Sun Aug 2, 10:04am

Sun Aug 2, 9:05am

Sun Aug 2, 8:05am

Sun Aug 2, 7:04am

Sun Aug 2, 6:04am

Sun Aug 2, 5:04am

Sun Aug 2, 4:05am

Sun Aug 2, 3:04am

Sun Aug 2, 2:04am

Sun Aug 2, 1:04am

Sun Aug 2, 12:05am

Sat Aug 1, 11:04pm

Sat Aug 1, 10:04pm

Sat Aug 1, 9:04pm

Sat Aug 1, 8:05pm

Sat Aug 1, 7:04pm

Sat Aug 1, 6:04pm

Sat Aug 1, 5:05pm

Sat Aug 1, 4:05pm

Sat Aug 1, 3:04pm

Sat Aug 1, 2:04pm

Sat Aug 1, 1:04pm

Sat Aug 1, 12:04pm

Sat Aug 1, 11:05am

Sat Aug 1, 10:05am

Sat Aug 1, 9:04am

Sat Aug 1, 8:04am

Sat Aug 1, 7:04am

Sat Aug 1, 6:04am

Sat Aug 1, 5:04am

Sat Aug 1, 4:05am

Sat Aug 1, 3:04am

Sat Aug 1, 2:04am

Sat Aug 1, 1:04am

Sat Aug 1, 12:05am

Fri Jul 31, 11:05pm

Fri Jul 31, 10:04pm

Fri Jul 31, 9:04pm

Fri Jul 31, 8:05pm

Fri Jul 31, 7:05pm

Fri Jul 31, 6:04pm

Fri Jul 31, 5:04pm

Fri Jul 31, 4:05pm

Fri Jul 31, 3:04pm

Fri Jul 31, 2:05pm

Fri Jul 31, 1:04pm

Fri Jul 31, 12:04pm

Meta data:

ID: 971629b3-2e00-475c-83f8-f23dac662b8c
Link: https://api.weather.gov/products/971629b3-2e00-475c-83f8-f23dac662b8c